Aérodrome :
LOGIN :

S'inscrire | Disclaimer

   EN    FR    IT 

 










Légende :    VFR   VFR Marginal   IFR   IFR Intensif   IFR Très Intensif
Visi : 
Plafond : 
>= 8 km
>= 3000ft
5 à 8 km
1000 à 3000 ft
1500m à 5 km
500 à 1000 ft
800 à 1500m
200 à 500 ft
< 800m
< 200 ft
Symboles :   Orages  Brouillard  Fortes neiges  Fortes précipitations  Vent > 20 kt
SIGMETs :   Divers  Orages  Givrage  Turbulence  Onde Orograph.  Cendres Volcan.






- Altitude de l'aérodrome : 125 ft
- Code IATA : MGL


EDLN - Mönchengladbach

DERNIER METAR :
  • 050750Z 15005KT 110V180 9999 BKN025 04/01 Q1000

METARs EXPIRÉS :
  • 050720Z 14005KT 110V170 9999 BKN026 04/01 Q1000
  • 050650Z 16005KT 9999 BKN025 OVC041 03/01 Q0999
  • 050620Z AUTO 18005KT 9999 // BKN026/// OVC039/// 03/01 Q0999
  • 050550Z AUTO 17005KT 140V200 9999 // SCT033/// BKN040/// BKN250/// 03/01 Q0999
  • 050520Z AUTO 17004KT 130V210 9999 // FEW045/// SCT250/// 02/01 Q0998

Prévision TAF périmée.



MET'MAP, la Météo Aéronautique d'un coup d'oeil ! - Copyright ORBIFLY Décembre 2007 - Disclaimer

ORBIFLY MET'MAP TEAM :

Programmation & Développement : Alexandra Zaïnal
Sur une idée originale de : Baudouin d'Aumeries
Assistance à la programmation : Marc-Olivier Méhu
Soutien technique & logistique : Manuel Goepfert

Contact : metmap@orbifly.com




SOURCES & CREDITS :

   NOAA